Voltar ao catálogo

STARLINK-34685

AtivoComunicaçõesVLEO
NORAD 64813·PAYLOAD·🇺🇸 United States

Lançado Jul 16, 2025 de Vandenberg Space Force Base

Loading…

Próximas Passagens (próximas 24 horas)

TLE

AtualizadoSource: CelesTrak SupGP

Época: Sep 15, 2026, 02:54 UTC

1 64813C 25150Z   26258.12131944  .00037446  00000+0  31399-2 0  2581
2 64813  70.0029  17.0347 0003296 263.4848 200.8710 14.98288990    16

Acompanhe STARLINK-34685 em tempo real com AllMySat

Download on the App Store